Regional Weather Roundup
Issued by NWS

Home | Current Version | Previous Version | Graphics & Text | Print | Product List | Glossary On
Versions: 1 2 3 4 5 6 7 8 9 10 11 12 13 14 15 16 17 18 19 20 21 22 23 24 25 26 27 28 29 30 31 32 33 34 35 36 37 38 39 40 41 42 43 44 45 46 47 48 49 50
656
ASUS43 KDTX 251801
RWRMI
MICHIGAN HOURLY REGIONAL WEATHER ROUNDUP
NATIONAL WEATHER SERVICE DETROIT/PONTIAC MI
200 PM EDT TUE JUL 25 2017

NOTE: "FAIR" INDICATES FEW OR NO CLOUDS BELOW 12,000 FEET WITH NO
SIGNIFICANT WEATHER AND/OR OBSTRUCTION TO VISIBILITY.

MIZ047>049-052>055-059>063-066>070-074>076-081>083-251900-
SOUTHEAST LOWER MICHIGAN

CITY           SKY/WX    TMP DP  RH WIND       PRES   REMARKS
ADRIAN         SUNNY     74  55  51 SE8       30.23F
6HR MIN TEMP:  59; 6HR MAX TEMP:  76;

ALMA           CLOUDY    76  46  34 S8        30.23F
ANN ARBOR      SUNNY     78  54  43 E8        30.22F
BAD AXE        SUNNY     74  54  50 NE5       30.24S
6HR MIN TEMP:  56; 6HR MAX TEMP:  74;

CARO           SUNNY     76  55  46 CALM      30.22S
DETROIT CITY   SUNNY     76  54  46 VRB6      30.22F
6HR MIN TEMP:  62; 6HR MAX TEMP:  76;

DETROIT        PTSUNNY   78  55  44 NE8       30.22F
6HR MIN TEMP:  62; 6HR MAX TEMP:  80;

FLINT          SUNNY     76  52  43 SE7       30.23F
6HR MIN TEMP:  57; 6HR MAX TEMP:  77;

GROSSE ILE     SUNNY     75  56  52 CALM      30.22F
6HR MIN TEMP:  62; 6HR MAX TEMP:  76;

HILLSDALE      MOSUNNY   73  50  43 E5        30.23F
HOWELL         CLOUDY    74  52  45 CALM      30.23F
6HR MIN TEMP:  58; 6HR MAX TEMP:  75;


CITY           SKY/WX    TMP DP  RH WIND       PRES   REMARKS
JACKSON        SUNNY     78  50  37 MISG      30.23F
6HR MIN TEMP:  57; 6HR MAX TEMP:  78;

LAMBERTVILLE   PTSUNNY   74  61  63 S9        30.21F
6HR MIN TEMP:  58; 6HR MAX TEMP:  74;

LANSING        MOSUNNY   78  51  38 CALM      30.23F
6HR MIN TEMP:  60; 6HR MAX TEMP:  78;

LAPEER         FAIR      74  52  45 E3        30.24F
6HR MIN TEMP:  55; 6HR MAX TEMP:  75;

MASON          MOSUNNY   75  56  51 E6        30.23F
MONROE         SUNNY     75  55  50 NE7       30.22F
6HR MIN TEMP:  58; 6HR MAX TEMP:  75;

MT. CLEMENS    MOSUNNY   76  56  48 E9        30.21F
6HR MIN TEMP:  61; 6HR MAX TEMP:  76;

PONTIAC        PTSUNNY   77  52  41 N3        30.22F
6HR MIN TEMP:  61; 6HR MAX TEMP:  77;

PORT HOPE        N/A     69  57  65 E7        30.23S
6HR MIN TEMP:  63; 6HR MAX TEMP:  70;

PORT HURON     SUNNY     75  50  41 N8        30.23F
TRI CITIES     SUNNY     76  57  51 MISG      30.23F
6HR MIN TEMP:  61; 6HR MAX TEMP:  77;

MIDLAND        FAIR      81  54  39 SE7       30.21F
6HR MIN TEMP:  55; 6HR MAX TEMP:  81;

TROY           SUNNY     77  54  43 NE7       30.24F
SAGINAW HB     SUNNY     75  55  50 E6        30.22F
$$
MIZ043>046-050>051-056>058-064>065-071>073-077>080-251900-
SOUTHWEST LOWER MICHIGAN

CITY           SKY/WX    TMP DP  RH WIND       PRES   REMARKS
BATTLE CREEK   SUNNY     77  50  38 VRB5      30.24S
6HR MIN TEMP:  60; 6HR MAX TEMP:  77;

BENTON HARBOR  SUNNY     77  49  37 VRB5      30.23R
6HR MIN TEMP:  63; 6HR MAX TEMP:  79;

BIG RAPIDS     MOSUNNY   77  55  46 S9        30.24R
6HR MIN TEMP:  56; 6HR MAX TEMP:  77;

COLDWATER      SUNNY     75  53  47 CALM      30.24S
6HR MIN TEMP:  58; 6HR MAX TEMP:  75;

FREMONT        FAIR      78  53  42 S7        30.23R
GRAND RAPIDS   PTSUNNY   78  54  43 S12       30.24R
6HR MIN TEMP:  61; 6HR MAX TEMP:  79;

IONIA          FAIR      75  48  37 SW7       30.23R
6HR MIN TEMP:  59; 6HR MAX TEMP:  77;

KALAMAZOO      SUNNY     78  45  30 VRB3      30.23S
6HR MIN TEMP:  61; 6HR MAX TEMP:  79;

LUDINGTON      MOSUNNY   73  67  80 SW15      30.22S
6HR MIN TEMP:  61; 6HR MAX TEMP:  75;

MARSHALL       SUNNY     77  52  41 SE6       30.23S
6HR MIN TEMP:  57; 6HR MAX TEMP:  77;

MOUNT PLEASANT MOSUNNY   78  50  36 E6        30.22S
6HR MIN TEMP:  61; 6HR MAX TEMP:  79;

MUSKEGON       PTSUNNY   78  57  48 SW15      30.23R
6HR MIN TEMP:  63; 6HR MAX TEMP:  78;

SOUTH HAVEN    SUNNY     78  54  43 SW5       30.23R
$$
MIZ016>042-251900-
NORTHERN LOWER MICHIGAN

CITY           SKY/WX    TMP DP  RH WIND       PRES   REMARKS
ALPENA         MOSUNNY   76  60  57 E12       30.22S
6HR MIN TEMP:  57; 6HR MAX TEMP:  77;

BEAVER ISLAND  SUNNY     75  57  52 SW9G16    30.21R
6HR MIN TEMP:  57; 6HR MAX TEMP:  76;

BELLAIRE       MOSUNNY   80  52  37 S6        30.20R
6HR MIN TEMP:  53; 6HR MAX TEMP:  80;

CADILLAC       CLOUDY    79  53  40 SW9       30.22R
CHARLEVOIX     SUNNY     78  55  45 W13       30.23R
FRANKFORT      SUNNY     74  61  64 SW9G16    30.22S
GAYLORD        SUNNY     77  48  35 S6        30.22S
6HR MIN TEMP:  56; 6HR MAX TEMP:  78;

GRAYLING       SUNNY     77  51  39 SE8       30.23S
6HR MIN TEMP:  51; 6HR MAX TEMP:  78;

HARBOR SPRINGS SUNNY     78  53  42 W5        30.20R
HOUGHTON LAKE  SUNNY     76  52  43 SW7       30.23S
6HR MIN TEMP:  53; 6HR MAX TEMP:  77;

MANISTEE       MOSUNNY   76  60  57 W16       30.21R
OSCODA         SUNNY     74  55  51 SE7       30.22F
PELLSTON       SUNNY     79  54  41 NE6       30.20S
6HR MIN TEMP:  54; 6HR MAX TEMP:  80;

ROGERS CITY    SUNNY     72  57  59 E9        30.22S
TRAVERSE CITY  MOSUNNY   80  54  40 W12       30.19R
6HR MIN TEMP:  57; 6HR MAX TEMP:  82;

$$
MIZ007>008-015-251900-
EASTERN UPPER MICHIGAN

CITY           SKY/WX    TMP DP  RH WIND       PRES   REMARKS
KINROSS        SUNNY     76  52  43 SW8       30.20S
6HR MIN TEMP:  57; 6HR MAX TEMP:  76;

MACKINAC ISLAN SUNNY     73  58  59 CALM      30.21R
6HR MIN TEMP:  59; 6HR MAX TEMP:  73;

NEWBERRY       SUNNY     72  56  57 S14G20    30.19S
6HR MIN TEMP:  56; 6HR MAX TEMP:  73;

S. S. MARIE    SUNNY     77  53  43 S8        30.18F
6HR MIN TEMP:  58; 6HR MAX TEMP:  77;

MUNISING         N/A     79  55  43 S8G21     30.13F
6HR MIN TEMP:  61; 6HR MAX TEMP:  79;

$$
MIZ004>006-011>014-085-251900-
CENTRAL UPPER MICHIGAN

CITY           SKY/WX    TMP DP  RH WIND       PRES   REMARKS
MANISTIQUE     SUNNY     70  64  81 S12       30.19F
6HR MIN TEMP:  58; 6HR MAX TEMP:  70;

ESCANABA       SUNNY     72  60  66 S12G22    30.16F
6HR MIN TEMP:  56; 6HR MAX TEMP:  73;

MENOMINEE      CLOUDY    75  60  59 SW14G21   30.18F
6HR MIN TEMP:  61; 6HR MAX TEMP:  75;

SAWYER-GWINN   SUNNY     75  50  41 S15G22    30.15F
$$
MIZ001>003-009>011-084-251900-
WESTERN UPPER MICHIGAN

CITY           SKY/WX    TMP DP  RH WIND       PRES   REMARKS
IRON MOUNTAIN  PTSUNNY   73  49  42 S15       30.15F
6HR MIN TEMP:  58; 6HR MAX TEMP:  75;

HOUGHTON       MOSUNNY   77  53  43 S16G22    30.08F
6HR MIN TEMP:  61; 6HR MAX TEMP:  79;

COPPER HARBOR    N/A     74  55  51 VRB6      30.08F
6HR MIN TEMP:  65; 6HR MAX TEMP:  75;

IRONWOOD       SUNNY     74  58  57 S15G21    30.06F
6HR MIN TEMP:  62; 6HR MAX TEMP:  74;

$$

ABBREVIATIONS USED IN REMARKS
   TC - TEMPERATURE IN CELSIUS
  WCI - WIND CHILL INDEX
   HX - HEAT INDEX
  VSB - VISIBILITY





USA.gov is the U.S. government's official web portal to all federal, state and local government web resources and services.